User: anonymous   Login
Location: Kailua
(21.4020°N, 157.7390°W)
Time: 08:56:55
(UTC-10:00)
Language:

Cosmos 2297 Rocket - Orbit

View from above orbital plane
View from above orbital plane
View from above satellite
View from above satellite

Ground track
Ground track

The orbit data is extracted from the following two-line orbital elements,

1 23405U 94077B   16243.13472676 -.00000202  00000-0 -79167-4 0  9993
2 23405  70.9828 107.3324 0002146 344.1447  15.9608 14.15187786124330
Epoch (UTC): 30 August 2016 03:14:00
Eccentricity: 0.0002146
inclination: 70.9828°
perigee height: 840 km
apogee height: 843 km
right ascension of ascending node: 107.3324°
argument of perigee: 344.1447°
revolutions per day: 14.15187786
mean anomaly at epoch: 15.9608°
orbit number at epoch: 12433

The dashed part of the orbit path shows where the satellite is in the earth's shadow,  

DLR